Погода в Чикмане

Россия / Новосибирская область     54°46′21″N   81°20′13″E
темп.,
°C
ветер,
м/с
пор.,
м/с
влажн.,
%
обл.,
%
осадки,
мм/ч
давл.,
гПа
погр.,
м
13 июня, вс
вс1301:00+10сз227289 0.0 101714
04:00+10сз228198 0.0 101720
07:00+12сз3679100 0.0 1017161
10:00+16сз4673100 0.0 1017455
13:00+14сз4792100 1.0 1016411
16:00+13з4797100 0.8 1017435
19:00+16з489151 0.9 1016464
22:00+15сз379232 0.6 1016142
14 июня, пн
пн1401:00+13ссв35930 0.6 101773
04:00+11ссв37971 0.0 1018143
07:00+11ссв48945 0.0 1020267
10:00+15св56735 0.0 1021758
13:00+19ссв56572 0.0 10211486
16:00+20ссв45515 0.0 10201705
19:00+20с34595 0.0 10201222
22:00+14ссз3376100 0.0 102026
15 июня, вт
вт1501:00+11ссв118161 0.0 102011
04:00+11с127615 0.0 102010
07:00+14з11758 0.0 102043
10:00+19з2366100 0.0 1020409
13:00+23з45615 0.0 10191082
16:00+23зсз456419 1.1 10171288
19:00+22зсз357987 3.5 1017315
22:00+18зюз228668 0.5 101614
16 июня, ср
ср1601:00+16з339029 0.5 101634
04:00+15юз359291 0.0 101566
07:00+16зюз3691100 0.3 1015150
10:00+19зюз4781100 0.1 1015276
13:00+25з566098 0.1 1014965
16:00+26з56535 0.0 10131673
19:00+25з356578 0.1 1011796
22:00+16юз6119059 2.2 1013183
17 июня, чт
чт1701:00+15юз238999 2.2 101128
04:00+15юз339513 0.0 101161
07:00+16юз249427 0.0 1011123
10:00+20з237524 0.0 1010459
13:00+24зюз34615 0.0 10091104
16:00+24зюз44686 1.4 10081088
19:00+24зсз336839 1.6 10071103
22:00+19с338848 1.2 100733